KV5W Weather Reports


time (UTC)temp
C
wind
direction
speed
KPH
gust
KPH
rain 1hr
cm
rain 24hr
cm
rain mn
cm
humidity
%
barometer
mb
20260506160028 15 268 0.0 6.4 0.00 0.03 0.03 84 1013.9
20260506154529 15 306 1.6 9.7 0.00 0.03 0.03 84 1013.5
20260506153022 15 299 3.2 8.0 0.00 0.03 0.03 84 1012.9
20260506151523 15 209 0.0 12.9 0.00 0.03 0.03 84 1012.7
20260506150007 15 286 0.0 9.7 0.00 0.03 0.03 84 1012.9
20260506144523 15 302 1.6 6.4 0.00 0.03 0.03 84 1012.7
20260506143017 15 264 0.0 4.8 0.00 0.03 0.03 85 1012.4
20260506141518 15 266 0.0 11.3 0.00 0.03 0.03 85 1012.0
20260506140004 15 251 0.0 8.0 0.00 0.03 0.03 86 1011.9
20260506134507 15 250 1.6 6.4 0.00 0.03 0.03 87 1011.7
20260506133012 15 313 4.8 11.3 0.00 0.03 0.03 86 1011.7
20260506131519 16 253 3.2 11.3 0.00 0.03 0.03 86 1011.6
20260506130018 16 263 3.2 14.5 0.00 0.03 0.03 86 1011.4
20260506124504 16 343 0.0 8.0 0.03 0.03 0.03 86 1011.0
20260506123010 17 271 1.6 11.3 0.03 0.03 0.03 85 1010.6
20260506121518 17 292 0.0 4.8 0.03 0.03 0.03 84 1010.6
20260506120026 18 290 0.0 4.8 0.03 0.03 0.03 83 1010.3
20260506114522 18 307 0.0 4.8 0.00 0.00 0.00 82 1010.1
20260506113008 20 286 1.6 4.8 0.00 0.00 0.00 80 1009.9
20260506111514 21 346 0.0 4.8 0.00 0.00 0.00 78 1009.5
20260506110023 22 275 0.0 3.2 0.00 0.00 0.00 79 1009.3
20260506104527 23 291 3.2 6.4 0.00 0.00 0.00 86 1009.1
20260506103024 23 34 0.0 0.0 0.00 0.00 0.00 87 1008.8
20260506101512 23 57 0.0 0.0 0.00 0.00 0.00 87 1008.7
20260506100024 23 125 0.0 0.0 0.00 0.00 0.00 86 1008.7
20260506094526 23 360 0.0 4.8 0.00 0.00 0.00 86 1008.5
20260506093031 23 51 0.0 0.0 0.00 0.00 0.00 86 1008.8
20260506091522 23 9 0.0 3.2 0.00 0.00 0.00 86 1008.6
20260506090016 23 23 0.0 0.0 0.00 0.00 0.00 86 1008.7
20260506084518 23 65 0.0 3.2 0.00 0.00 0.00 86 1008.6
20260506083031 23 53 0.0 6.4 0.00 0.00 0.00 87 1008.5
20260506081526 23 34 0.0 3.2 0.00 0.00 0.00 87 1008.5
20260506073023 23 90 0.0 3.2 0.00 0.00 0.00 86 1008.6
20260506071505 23 148 0.0 3.2 0.00 0.00 0.00 85 1008.4
20260506061526 23 76 0.0 3.2 0.00 0.00 0.00 84 1008.7
20260506044512 24 51 1.6 4.8 0.00 0.00 0.00 82 1008.2
20260506043019 24 350 0.0 4.8 0.00 0.00 0.00 81 1008.2
20260506041522 24 55 0.0 4.8 0.00 0.00 0.00 81 1007.9
20260506040028 24 71 1.6 6.4 0.00 0.00 0.00 81 1007.6
20260506034526 25 126 1.6 6.4 0.00 0.00 0.00 80 1007.5
20260506033020 25 145 0.0 6.4 0.00 0.00 0.00 80 1007.2
20260506031539 25 131 0.0 6.4 0.00 0.00 0.00 80 1007.2
20260506030029 25 113 0.0 3.2 0.00 0.00 0.00 79 1007.1
20260506024533 25 72 0.0 3.2 0.00 0.00 0.00 78 1006.9
20260506023012 25 130 0.0 4.8 0.00 0.00 0.00 78 1006.7
20260506021520 26 76 0.0 4.8 0.00 0.00 0.00 77 1006.7
20260506020022 26 88 0.0 3.2 0.00 0.00 0.00 77 1006.8
20260506014526 26 107 0.0 3.2 0.00 0.00 0.00 76 1006.5
20260506013027 26 83 0.0 3.2 0.00 0.00 0.00 75 1006.6
20260506011518 26 40 0.0 0.0 0.00 0.00 0.00 74 1006.3
20260506010046 27 42 0.0 3.2 0.00 0.00 0.00 73 1006.0
20260506004526 27 128 0.0 4.8 0.00 0.00 0.00 72 1005.6
20260506003030 27 287 1.6 6.4 0.00 0.00 0.00 71 1005.6
20260506001530 27 81 0.0 3.2 0.00 0.00 0.00 70 1005.5
20260506000029 28 76 1.6 8.0 0.00 0.00 0.00 69 1005.8
20260505234503 28 311 0.0 4.8 0.00 0.00 0.00 69 1005.8
20260505233009 28 74 0.0 4.8 0.00 0.00 0.00 68 1005.6
20260505231513 28 74 0.0 4.8 0.00 0.00 0.00 67 1005.3
20260505230025 28 5 0.0 6.4 0.00 0.00 0.00 66 1005.2
20260505224522 29 50 1.6 4.8 0.00 0.00 0.00 66 1005.1
20260505223007 29 169 0.0 9.7 0.00 0.00 0.00 66 1005.2
20260505221512 30 42 1.6 9.7 0.00 0.00 0.00 64 1005.1
20260505220019 30 330 0.0 6.4 0.00 0.00 0.00 65 1005.4
20260505214521 30 59 0.0 11.3 0.00 0.00 0.00 64 1005.6
20260505213027 30 99 0.0 6.4 0.00 0.00 0.00 63 1005.9
20260505211508 30 25 0.0 6.4 0.00 0.00 0.00 63 1005.9
20260505210014 30 243 1.6 9.7 0.00 0.00 0.00 65 1006.0
20260505204521 29 9 1.6 14.5 0.00 0.00 0.00 66 1006.0
20260505203030 29 45 3.2 9.7 0.00 0.00 0.00 66 1006.1
20260505201510 29 149 3.2 8.0 0.00 0.00 0.00 65 1006.3
20260505200032 28 243 0.0 6.4 0.00 0.00 0.00 66 1006.5
20260505194518 29 17 1.6 6.4 0.00 0.00 0.00 66 1006.7
20260505193020 28 57 1.6 17.7 0.00 0.00 0.00 68 1006.9
20260505191526 28 21 3.2 8.0 0.00 0.00 0.00 66 1006.7
20260505190010 27 19 1.6 11.3 0.00 0.00 0.00 71 1006.7
20260505184516 27 51 1.6 8.0 0.00 0.00 0.00 71 1007.0
20260505183019 27 92 4.8 16.1 0.00 0.00 0.00 71 1007.1
20260505181522 26 81 1.6 14.5 0.00 0.00 0.00 71 1007.1
20260505180026 26 109 1.6 11.3 0.00 0.00 0.00 72 1007.4
20260505174510 26 236 0.0 8.0 0.00 0.00 0.00 71 1007.5
20260505173016 26 16 1.6 12.9 0.00 0.00 0.00 72 1007.2
20260505171535 26 58 0.0 9.7 0.00 0.00 0.00 73 1007.4
20260505170025 26 26 3.2 12.9 0.00 0.00 0.00 73 1007.4
20260505164528 25 76 1.6 9.7 0.00 0.00 0.00 76 1007.7
20260505163014 25 46 1.6 12.9 0.00 0.00 0.00 76 1007.6
20260505161519 23 339 0.0 8.0 0.00 0.00 0.00 79 1007.7